TimeCST,TemperatureF,Dew PointF,Humidity,Sea Level PressureIn,VisibilityMPH,Wind Direction,Wind SpeedMPH,Gust SpeedMPH,PrecipitationIn,Events,Conditions,WindDirDegrees,DateUTC
12:00 AM,82,45,17,29.63,,ESE,5.8,,,,,110,2013-02-23 14:30:00
12:00 AM,82.4,44.6,26,29.74,6.2,ESE,5.8,-,N/A,,Unknown,110,2013-02-23 14:30:00
12:30 AM,83,46,17,29.64,,ESE,8.1,,,,,110,2013-02-23 15:00:00
12:30 AM,82.4,46.4,28,29.74,6.2,ESE,8.1,-,N/A,,Unknown,110,2013-02-23 15:00:00
1:00 AM,82.4,48.2,30,29.74,6.2,ENE,6.9,-,N/A,,Unknown,70,2013-02-23 15:30:00
1:30 AM,80.6,48.2,32,29.74,6.2,ENE,5.8,-,N/A,,Mostly Cloudy,60,2013-02-23 16:00:00
2:00 AM,78.8,46.4,32,29.74,6.2,ESE,5.8,-,N/A,,Unknown,120,2013-02-23 16:30:00
2:30 AM,80.6,46.4,30,29.74,6.2,ENE,8.1,-,N/A,,Unknown,70,2013-02-23 17:00:00
3:00 AM,80,48,22,29.64,,East,6.9,,,,,80,2013-02-23 17:30:00
3:00 AM,78.8,48.2,34,29.74,6.2,East,6.9,-,N/A,,Unknown,80,2013-02-23 17:30:00
3:30 AM,80,47,21,29.64,,East,9.2,,,,,100,2013-02-23 18:00:00
3:30 AM,78.8,46.4,32,29.74,6.2,East,9.2,-,N/A,,Unknown,100,2013-02-23 18:00:00
4:00 AM,78.8,46.4,32,29.74,6.2,East,8.1,-,N/A,,Unknown,90,2013-02-23 18:30:00
4:30 AM,77.0,46.4,34,29.74,6.2,East,8.1,-,N/A,,Unknown,80,2013-02-23 19:00:00
5:00 AM,77.0,48.2,36,29.74,6.2,East,6.9,-,N/A,,Unknown,90,2013-02-23 19:30:00
5:30 AM,77.0,46.4,34,29.74,6.2,East,8.1,-,N/A,,Unknown,100,2013-02-23 20:00:00
6:00 AM,76,47,25,29.65,19,East,8.1,,,,Partly Cloudy,90,2013-02-23 20:30:00
6:00 AM,75.2,46.4,36,29.74,-9999.0,East,8.1,-,N/A,,Clear,90,2013-02-23 20:30:00
6:30 AM,75,48,27,29.65,,East,5.8,,,,,90,2013-02-23 21:00:00
6:30 AM,75.2,48.2,38,29.77,-9999.0,East,5.8,-,N/A,,Clear,90,2013-02-23 21:00:00
7:00 AM,77.0,48.2,36,29.77,-9999.0,East,5.8,-,N/A,,Clear,90,2013-02-23 21:30:00
7:30 AM,82.4,46.4,28,29.77,-9999.0,East,6.9,-,N/A,,Clear,90,2013-02-23 22:00:00
8:00 AM,87.8,46.4,24,29.80,-9999.0,East,6.9,-,N/A,,Clear,90,2013-02-23 22:30:00
8:30 AM,91.4,44.6,20,29.80,-9999.0,NE,15.0,-,N/A,,Clear,50,2013-02-23 23:00:00
9:00 AM,93,44,11,29.70,19,ENE,17.3,,,,Partly Cloudy,70,2013-02-23 23:30:00
9:00 AM,93.2,44.6,19,29.80,-9999.0,ENE,17.3,-,N/A,,Clear,70,2013-02-23 23:30:00
9:30 AM,95,44,10,29.69,,ENE,17.3,,,,,70,2013-02-24 00:00:00
9:30 AM,95.0,44.6,18,29.80,-9999.0,ENE,17.3,-,N/A,,Clear,70,2013-02-24 00:00:00
10:00 AM,96.8,42.8,16,29.80,-9999.0,NNE,13.8,-,N/A,,Clear,30,2013-02-24 00:30:00
10:30 AM,98.6,42.8,15,29.80,-9999.0,North,11.5,-,N/A,,Clear,10,2013-02-24 01:00:00
11:00 AM,98.6,44.6,16,29.77,-9999.0,North,12.7,-,N/A,,Clear,10,2013-02-24 01:30:00
11:30 AM,100.4,44.6,15,29.77,6.2,North,13.8,-,N/A,,Dust Whirls,10,2013-02-24 02:00:00
12:00 PM,100,47,9,29.65,19,North,10.4,,,,Dust Whirls,0,2013-02-24 02:30:00
12:00 PM,100.4,46.4,16,29.74,6.2,North,10.4,-,N/A,,Dust Whirls,360,2013-02-24 02:30:00
12:30 PM,100,49,11,29.63,,NE,9.2,,,,,40,2013-02-24 03:00:00
12:30 PM,100.4,50.0,18,29.74,6.2,NE,9.2,-,N/A,,Unknown,40,2013-02-24 03:00:00
1:00 PM,102.2,46.4,15,29.71,6.2,NW,8.1,-,N/A,,Dust Whirls,320,2013-02-24 03:30:00
1:30 PM,104.0,46.4,14,29.71,-9999.0,West,5.8,-,N/A,,Clear,260,2013-02-24 04:00:00
2:00 PM,102.2,46.4,15,29.68,6.2,NW,6.9,-,N/A,,Dust Whirls,310,2013-02-24 04:30:00
2:30 PM,104.0,46.4,14,29.68,6.2,North,6.9,-,N/A,,Dust Whirls,360,2013-02-24 05:00:00
3:00 PM,105,45,7,29.57,19,SSE,8.1,,,,Partly Cloudy,150,2013-02-24 05:30:00
3:00 PM,105.8,44.6,13,29.68,-9999.0,SSE,8.1,-,N/A,,Clear,150,2013-02-24 05:30:00
3:30 PM,106,42,6,29.56,,SSE,10.4,,,,,150,2013-02-24 06:00:00
3:30 PM,105.8,42.8,12,29.65,-9999.0,SSE,10.4,-,N/A,,Clear,150,2013-02-24 06:00:00
4:00 PM,107.6,42.8,11,29.65,-9999.0,SSE,8.1,-,N/A,,Clear,150,2013-02-24 06:30:00
4:30 PM,104.0,42.8,12,29.65,-9999.0,SE,5.8,-,N/A,,Clear,140,2013-02-24 07:00:00
5:00 PM,104.0,44.6,13,29.65,-9999.0,East,16.1,-,N/A,,Clear,100,2013-02-24 07:30:00
5:30 PM,104.0,39.2,11,29.65,6.2,East,9.2,-,N/A,,Partly Cloudy,100,2013-02-24 08:00:00
6:00 PM,103,39,5,29.55,,ESE,12.7,,,,,120,2013-02-24 08:30:00
6:00 PM,104.0,39.2,11,29.65,6.2,ESE,12.7,-,N/A,,Unknown,120,2013-02-24 08:30:00
6:30 PM,102,40,6,29.55,,ESE,11.5,,,,,120,2013-02-24 09:00:00
6:30 PM,102.2,39.2,11,29.65,6.2,ESE,11.5,-,N/A,,Unknown,120,2013-02-24 09:00:00
7:00 PM,100.4,39.2,12,29.68,6.2,ESE,13.8,-,N/A,,Unknown,110,2013-02-24 09:30:00
7:30 PM,98.6,41.0,14,29.68,6.2,ESE,12.7,-,N/A,,Unknown,120,2013-02-24 10:00:00
8:00 PM,96.8,41.0,15,29.71,6.2,ESE,13.8,-,N/A,,Unknown,110,2013-02-24 10:30:00
8:30 PM,96.8,41.0,15,29.71,6.2,ESE,12.7,-,N/A,,Unknown,110,2013-02-24 11:00:00
9:00 PM,95,41,8,29.63,,ESE,16.1,,,,,110,2013-02-24 11:30:00
9:00 PM,95.0,41.0,15,29.74,6.2,ESE,16.1,-,N/A,,Unknown,110,2013-02-24 11:30:00
9:30 PM,94,41,9,29.64,,East,12.7,,,,,100,2013-02-24 12:00:00
9:30 PM,93.2,41.0,16,29.74,6.2,East,12.7,-,N/A,,Unknown,100,2013-02-24 12:00:00
10:00 PM,93.2,41.0,16,29.77,6.2,ESE,10.4,-,N/A,,Unknown,110,2013-02-24 12:30:00
10:30 PM,91.4,41.0,17,29.77,6.2,East,11.5,-,N/A,,Unknown,100,2013-02-24 13:00:00
11:00 PM,89.6,46.4,22,29.77,6.2,East,10.4,-,N/A,,Unknown,90,2013-02-24 13:30:00
11:30 PM,86.0,46.4,25,29.77,6.2,ENE,6.9,-,N/A,,Unknown,60,2013-02-24 14:00:00